Date String (YYYY-MM-DD hh:mm:ss) UTC,Instrument flags,absolute air pressure of the measurement (hPa),sample flow rate (lpm),inlet stack bypass flow (lpm),air temperature of the measurement (°C),ambient temperature measured by the external sensor (°C),aerosol sample conditioner tube jacket temperature (°C),OPC LED temperature (°C),internal box temperature (°C),relative humidity of the measurement (%),span deviation,mass concentration of particles derived from Lorenz-Mie calculation of OPC scattering (μg/m³),mass concentration of particles derived from Lorenz-Mie calculation of OPC scattering (μg/m³),mass concentration of particles derived from Lorenz-Mie calculation of OPC scattering (μg/m³)
DateTimeUTC,F1_M11,P_M11,Q1_M11,Q2_M11,T1_M11,T2_M11,T3_M11,T4_M11,T5_M11,U1_M11,ZSPAN_M11,X0_M11,X2_M11,X1_M11
2024-04-03 14:00:00,SystemResetWarning,0830.9,5.01,000.00,021.1,020.4,000.0,029.6,022.9,019.1,0000.0,0004.10,0002.64,0001.99
2024-04-03 14:01:00,SystemResetWarning,0830.9,5.01,000.00,021.1,020.5,000.0,029.5,022.9,018.6,0000.0,0004.37,0002.64,0002.00
2024-04-03 14:02:00,SystemResetWarning,0830.9,5.00,000.00,021.1,020.5,000.0,029.6,022.9,018.7,0000.0,0004.36,0002.64,0002.00
2024-04-03 14:03:00,SystemResetWarning,0830.9,4.99,000.00,021.1,020.5,000.0,029.6,022.9,017.7,0000.0,0004.76,0002.62,0001.98
2024-04-03 14:04:00,SystemResetWarning,0830.9,5.00,000.00,021.1,020.5,000.0,029.6,022.9,018.3,0000.0,0004.81,0002.62,0001.97
2024-04-03 14:05:00,SystemResetWarning,0830.9,4.99,000.00,021.1,020.5,000.0,029.6,022.9,018.2,0000.0,0004.82,0002.65,0001.98
2024-04-03 14:06:00,SystemResetWarning,0830.9,5.00,000.00,021.1,020.5,000.0,029.6,022.9,018.1,0000.0,0004.93,0002.68,0001.97
2024-04-03 14:07:00,SystemResetWarning,0830.9,5.00,000.00,021.1,020.5,000.0,029.6,022.9,017.9,0000.0,0004.89,0002.66,0001.97
2024-04-03 14:08:00,SystemResetWarning,0830.8,5.00,000.00,021.1,020.5,000.0,029.6,022.9,018.0,0000.0,0004.98,0002.69,0001.96
2024-04-03 14:09:00,SystemResetWarning,0830.8,5.00,000.00,021.1,020.5,000.0,029.6,023.0,017.9,0000.0,0005.69,0002.73,0001.96
2024-04-03 14:10:00,SystemResetWarning,0830.8,5.00,000.00,021.1,020.5,000.0,029.6,023.0,017.6,0000.0,0005.83,0002.75,0001.96
2024-04-03 14:11:00,SystemResetWarning,0830.8,5.00,000.00,021.1,020.5,000.0,029.6,023.0,017.7,0000.0,0006.61,0002.82,0001.96
2024-04-03 14:12:00,SystemResetWarning,0830.8,5.00,000.00,021.1,020.5,000.0,029.6,023.0,017.5,0000.0,0007.18,0002.89,0001.96
2024-04-03 14:13:00,SystemResetWarning,0830.8,5.00,000.00,021.1,020.5,000.0,029.6,023.0,017.1,0000.0,0007.15,0002.88,0001.95
2024-04-03 14:14:00,SystemResetWarning,0830.8,5.00,000.00,021.1,020.5,000.0,029.6,023.0,016.9,0000.0,0006.70,0002.82,0001.95
2024-04-03 14:15:00,SystemResetWarning,0830.7,4.99,000.00,021.2,020.5,000.0,029.6,023.0,017.2,0000.0,0006.58,0002.82,0001.96
2024-04-03 14:16:00,SystemResetWarning,0830.7,5.00,000.00,021.2,020.5,000.0,029.6,023.0,017.0,0000.0,0006.71,0002.84,0001.96
2024-04-03 14:17:00,SystemResetWarning,0830.7,5.00,000.00,021.2,020.6,000.0,029.6,023.0,017.2,0000.0,0006.78,0002.82,0001.95
2024-04-03 14:18:00,SystemResetWarning,0830.7,5.00,000.00,021.2,020.6,000.0,029.6,023.0,017.4,0000.0,0007.25,0002.80,0001.92
2024-04-03 14:19:00,SystemResetWarning,0830.7,5.00,000.00,021.2,020.6,000.0,029.6,023.0,016.9,0000.0,0007.38,0002.79,0001.92
2024-04-03 14:20:00,SystemResetWarning,0830.7,5.00,000.00,021.2,020.6,000.0,029.6,023.0,016.9,0000.0,0006.98,0002.78,0001.92
2024-04-03 14:21:00,SystemResetWarning,0830.7,5.00,000.00,021.2,020.6,000.0,029.6,023.0,017.1,0000.0,0006.71,0002.74,0001.91
2024-04-03 14:22:00,SystemResetWarning,0830.7,5.00,000.00,021.2,020.6,000.0,029.6,023.0,017.3,0000.0,0006.06,0002.73,0001.91
2024-04-03 14:23:00,SystemResetWarning,0830.7,5.00,000.00,021.2,020.6,000.0,029.6,023.0,016.8,0000.0,0005.12,0002.64,0001.90
2024-04-03 14:24:00,SystemResetWarning,0830.8,4.99,000.00,021.2,020.6,000.0,029.6,023.0,016.7,0000.0,0005.16,0002.64,0001.90
2024-04-03 14:25:00,SystemResetWarning,0830.7,5.00,000.00,021.2,020.6,000.0,029.6,023.0,017.0,0000.0,0005.30,0002.66,0001.90
2024-04-03 14:26:00,SystemResetWarning,0830.7,5.00,000.00,021.2,020.6,000.0,029.6,023.0,016.7,0000.0,0005.55,0002.69,0001.88
2024-04-03 14:27:00,SystemResetWarning,0830.7,5.00,000.00,021.2,020.6,000.0,029.6,023.0,016.2,0000.0,0005.51,0002.72,0001.88
2024-04-03 14:28:00,SystemResetWarning,0830.7,5.00,000.00,021.2,020.6,000.0,029.6,023.0,016.2,0000.0,0005.19,0002.65,0001.87
2024-04-03 14:29:00,SystemResetWarning,0830.8,5.00,000.00,021.2,020.6,000.0,029.7,023.1,016.6,0000.0,0004.79,0002.64,0001.88
2024-04-03 14:30:00,SystemResetWarning,0830.8,5.00,000.00,021.3,020.7,000.0,029.7,023.1,016.6,0000.0,0005.16,0002.65,0001.90
2024-04-03 14:31:00,SystemResetWarning,0830.8,4.99,000.00,021.3,020.7,000.0,029.7,023.1,016.3,0000.0,0006.31,0002.70,0001.90
2024-04-03 14:32:00,SystemResetWarning,0830.8,5.00,000.00,021.3,020.7,000.0,029.7,023.1,016.5,0000.0,0007.44,0002.80,0001.90
2024-04-03 14:33:00,SystemResetWarning,0830.8,5.00,000.00,021.3,020.7,000.0,029.7,023.1,016.5,0000.0,0007.58,0002.83,0001.90
2024-04-03 14:34:00,SystemResetWarning,0830.8,5.00,000.00,021.3,020.7,000.0,029.7,023.1,016.5,0000.0,0007.61,0002.86,0001.91
2024-04-03 14:35:00,SystemResetWarning,0830.8,5.00,000.00,021.3,020.7,000.0,029.7,023.1,016.0,0000.0,0007.65,0002.89,0001.91
2024-04-03 14:36:00,SystemResetWarning,0830.8,5.00,000.00,021.3,020.7,000.0,029.7,023.1,016.1,0000.0,0007.63,0002.92,0001.92
2024-04-03 14:37:00,SystemResetWarning,0830.7,4.99,000.00,021.3,020.7,000.0,029.7,023.1,016.0,0000.0,0007.45,0002.87,0001.94
2024-04-03 14:38:00,SystemResetWarning,0830.7,5.00,000.00,021.3,020.7,000.0,029.7,023.1,015.9,0000.0,0007.43,0002.81,0001.92
2024-04-03 14:39:00,SystemResetWarning,0830.7,5.00,000.00,021.3,020.7,000.0,029.7,023.1,016.2,0000.0,0007.50,0002.84,0001.93
2024-04-03 14:40:00,SystemResetWarning,0830.8,5.00,000.00,021.3,020.7,000.0,029.7,023.1,016.3,0000.0,0007.57,0002.88,0001.94
2024-04-03 14:41:00,SystemResetWarning,0830.7,4.99,000.00,021.3,020.7,000.0,029.7,023.1,016.0,0000.0,0007.41,0002.89,0001.91
2024-04-03 14:42:00,SystemResetWarning,0830.7,5.01,000.00,021.3,020.7,000.0,029.7,023.1,015.6,0000.0,0006.28,0002.82,0001.90
2024-04-03 14:43:00,SystemResetWarning,0830.7,5.00,000.00,021.3,020.7,000.0,029.7,023.2,015.5,0000.0,0004.78,0002.72,0001.90
2024-04-03 14:44:00,SystemResetWarning,0830.7,5.00,000.00,021.4,020.8,000.0,029.7,023.1,015.8,0000.0,0004.52,0002.69,0001.89
2024-04-03 14:45:00,SystemResetWarning,0830.7,5.00,000.00,021.4,020.8,000.0,029.7,023.2,015.9,0000.0,0004.63,0002.69,0001.87
2024-04-03 14:46:00,SystemResetWarning,0830.7,5.00,000.00,021.4,020.8,000.0,029.8,023.2,015.6,0000.0,0004.57,0002.65,0001.85
2024-04-03 14:47:00,SystemResetWarning,0830.7,5.00,000.00,021.4,020.8,000.0,029.8,023.2,015.9,0000.0,0004.46,0002.61,0001.83
2024-04-03 14:48:00,SystemResetWarning,0830.7,5.00,000.00,021.4,020.8,000.0,029.8,023.2,015.8,0000.0,0004.52,0002.62,0001.82
2024-04-03 14:49:00,SystemResetWarning,0830.7,5.01,000.00,021.4,020.8,000.0,029.8,023.2,015.9,0000.0,0004.71,0002.65,0001.82
2024-04-03 14:50:00,SystemResetWarning,0830.6,4.99,000.00,021.4,020.8,000.0,029.8,023.2,015.9,0000.0,0004.89,0002.72,0001.82
2024-04-03 14:51:00,SystemResetWarning,0830.7,5.00,000.00,021.4,020.8,000.0,029.8,023.2,016.1,0000.0,0004.74,0002.69,0001.82
2024-04-03 14:52:00,SystemResetWarning,0830.7,5.00,000.00,021.4,020.8,000.0,029.8,023.2,016.3,0000.0,0004.74,0002.71,0001.82
2024-04-03 14:53:00,SystemResetWarning,0830.6,5.00,000.00,021.4,020.8,000.0,029.8,023.2,016.5,0000.0,0004.96,0002.77,0001.81
2024-04-03 14:54:00,SystemResetWarning,0830.6,5.00,000.00,021.4,020.8,000.0,029.8,023.2,015.9,0000.0,0006.46,0002.83,0001.82
2024-04-03 14:55:00,SystemResetWarning,0830.6,5.00,000.00,021.4,020.8,000.0,029.8,023.2,016.3,0000.0,0006.58,0002.88,0001.83
2024-04-03 14:56:00,SystemResetWarning,0830.6,5.00,000.00,021.4,020.8,000.0,029.8,023.2,016.2,0000.0,0006.54,0002.90,0001.84
2024-04-03 14:57:00,SystemResetWarning,0830.6,5.00,000.00,021.4,020.8,000.0,029.8,023.2,015.3,0000.0,0006.41,0002.89,0001.84
2024-04-03 14:58:00,SystemResetWarning,0830.6,5.00,000.00,021.4,020.8,000.0,029.8,023.2,015.6,0000.0,0006.74,0002.96,0001.84
2024-04-03 14:59:00,SystemResetWarning,0830.6,5.00,000.00,021.5,020.8,000.0,029.8,023.2,015.5,0000.0,0006.98,0003.00,0001.84
